Flag for Spain

Past Weather in Cadiz, Cádiz, Spain — Yesterday and Last 2 Weeks

Now
82 °F

Clear.


Feels Like: 82 °F
Forecast: 86 / 72 °F
Wind: 13 mph from East

Location: Rota Airport

Current Time: Jul 12, 2020 at 1:18:31 am

Latest Report: Jul 12, 2020 at 12:00 am


Visibility: 10 mi

Pressure: 29.86 "Hg

Humidity: 45%

Dew Point: 59 °F

Location of CadizLocation

Past Weather in Cadiz — Graph

°F

Cadiz Temperature Yesterday

Maximum temperature yesterday: 93 °F (at 4:00 pm)
Minimum temperature yesterday: 75 °F (at 12:00 am)
Average temperature yesterday: 83 °F

High & Low Weather Summary for the Past Weeks

 TemperatureHumidityPressure
High97 °F (Jul 7, 5:00 pm)100% (Jun 27, 7:00 am)30.09 "Hg (Jun 27, 7:00 am)
Low61 °F (Jun 27, 7:00 am)25% (Jul 7, 12:00 pm)29.80 "Hg (Jul 11, 7:00 pm)
Average76 °F69%29.97 "Hg
* Reported Jun 27 12:00 am — Jul 12 12:00 am, Cadiz. Weather by CustomWeather, © 2020

Note: Actual official high and low records may vary slightly from our data, if they occured in-between our weather recording intervals... More about our weather records

Cadiz Weather History for the Previous 24 Hours

Scroll right to see more
 ConditionsComfort  
Time TempWeatherWind HumidityBarometerVisibility
12:00 am
Sun, Jul 12
82 °FClear.13 mph45%29.86 "Hg10 mi
11:00 pm
Sat, Jul 11
82 °FClear.14 mph48%29.86 "Hg10 mi
10:00 pm84 °FPassing clouds.18 mph43%29.83 "HgN/A
9:00 pm86 °FPassing clouds.28 mph46%29.80 "HgN/A
8:00 pm88 °FSunny.22 mph43%29.83 "Hg10 mi
7:00 pm91 °FScattered clouds.23 mph38%29.80 "HgN/A
6:00 pm93 °FPassing clouds.23 mph36%29.83 "HgN/A
5:00 pm93 °FSunny.20 mph36%29.86 "Hg10 mi
4:00 pm93 °FSunny.18 mph39%29.86 "Hg10 mi
3:00 pm91 °FPassing clouds.18 mph44%29.86 "HgN/A
2:00 pm91 °FPassing clouds.18 mph44%29.89 "HgN/A
1:00 pm91 °FPassing clouds.16 mph44%29.89 "HgN/A
12:00 pm88 °FPassing clouds.10 mph46%29.89 "HgN/A
11:00 am86 °FPassing clouds.13 mph43%29.89 "HgN/A
10:00 am81 °FPassing clouds.6 mph51%29.89 "HgN/A
9:00 am77 °FSunny.7 mph54%29.89 "Hg10 mi
8:00 am77 °FPassing clouds.10 mph54%29.86 "HgN/A
7:00 am75 °FPassing clouds.13 mph61%29.86 "HgN/A
6:00 am75 °FClear.10 mph65%29.86 "Hg10 mi
5:00 am77 °FClear.15 mph61%29.86 "Hg10 mi
4:00 am77 °FClear.10 mph57%29.86 "Hg10 mi
3:00 am77 °FClear.7 mph61%29.89 "Hg10 mi
2:00 am75 °FClear.2 mph69%29.89 "Hg10 mi
1:00 am75 °FClear.5 mph78%29.89 "Hg10 mi
Weather by CustomWeather, © 2020

See weather overview